Home   Weather   34°05'N, 117°45'W   Past weeks
Flag for USA

Past Weather in 34°05'N, 117°45'W, USA — Yesterday and Last 2 Weeks

Now
98 °F

Sunny.


Feels Like: 97 °F
Forecast: 97 / 65 °F
Wind: 5 mph from North

Location: Chino Airport

Current Time: Jul 15, 2019 at 1:37:54 pm

Latest Report: Jul 15, 2019 at 12:53 pm


Visibility: 10 mi

Pressure: 29.87 "Hg

Humidity: 25%

Dew Point: 57 °F

Location of 34°05'N, 117°45'WLocation

Past Weather in 34°05'N, 117°45'W — Graph

°F

34°05'N, 117°45'W Temperature Yesterday

Maximum temperature yesterday: 98 °F (at 2:53 pm)
Minimum temperature yesterday: 61 °F (at 4:53 am)
Average temperature yesterday: 77 °F

High & Low Weather Summary for the Past Weeks

 TemperatureHumidityPressure
High98 °F (Jul 12, 1:53 pm)100% (Jul 3, 5:53 am)30.06 "Hg (Jul 3, 5:53 am)
Low59 °F (Jul 1, 3:53 am)11% (Jun 30, 12:53 pm)29.75 "Hg (Jul 12, 5:53 pm)
Average73 °F65%29.94 "Hg
* Reported Jun 30 11:53 am — Jul 15 11:53 am, 34°05'N, 117°45'W. Weather by CustomWeather, © 2019

Note: Actual official high and low records may vary slightly from our data, if they occured in-between our weather recording intervals... More about our weather records

Advertising

34°05'N, 117°45'W Weather History for the Previous 24 Hours

Scroll right to see more
 ConditionsComfort  
Time TempWeatherWind HumidityBarometerVisibility
11:53 am
Mon, Jul 15
93 °FSunny.7 mph31%29.89 "Hg10 mi
10:53 am88 °FSunny.5 mph34%29.91 "Hg10 mi
9:53 am81 °FSunny.5 mph49%29.92 "Hg10 mi
8:53 am75 °FSunny.No wind64%29.93 "Hg10 mi
7:53 am69 °FSunny.No wind84%29.93 "Hg10 mi
6:53 am64 °FSunny.No wind100%29.93 "Hg10 mi
5:53 am62 °FFog.No wind96%29.92 "Hg5 mi
4:53 am61 °FClear.No wind97%29.91 "Hg7 mi
3:53 am62 °FClear.No wind100%29.91 "Hg7 mi
2:53 am63 °FClear.No wind93%29.91 "Hg8 mi
1:53 am64 °FClear.No wind90%29.92 "Hg8 mi
12:53 am67 °FClear.No wind85%29.94 "Hg7 mi
11:53 pm
Sun, Jul 14
68 °FClear.3 mph84%29.95 "Hg9 mi
10:53 pm69 °FClear.5 mph79%29.96 "Hg10 mi
9:53 pm72 °FClear.8 mph73%29.95 "Hg10 mi
8:53 pm74 °FClear.8 mph69%29.94 "Hg10 mi
7:53 pm78 °FSunny.13 mph56%29.91 "Hg10 mi
6:53 pm83 °FSunny.17 mph48%29.90 "Hg10 mi
5:53 pm88 °FSunny.15 mph36%29.89 "Hg10 mi
4:53 pm92 °FPassing clouds.17 mph27%29.89 "Hg10 mi
3:53 pm96 °FPassing clouds.13 mph23%29.90 "Hg10 mi
2:53 pm98 °FPassing clouds.15 mph19%29.90 "Hg10 mi
1:53 pm97 °FPassing clouds.12 mph21%29.91 "Hg10 mi
Weather by CustomWeather, © 2019

See weather overview

LIVE PARTIAL LUNAR ECLIPSE – Watch the eclipse as it happens